Location: B�hmisch Domaschlag
(49.8767°N, 12.9104°E)
Time: 17:50:05
(UTC+00:00)

Daily predictions for brighter satellites

Satellite Brightness Start Highest point End
(mag) Time Altitude Azimuth Time Altitude Azimuth Time Altitude Azimuth
USA 267 3.8 19:50:03 10° E 19:56:27 59° NNE 20:02:53 10° WNW
Meteor 1-21 Rocket 4.4 19:51:08 10° S 19:57:03 78° E 20:02:59 10° NNE
Alouette 2 Rocket 3.7 19:56:44 10° N 20:00:25 57° ENE 20:05:12 10° SSE
Cosmos 1953 Rocket 4.4 19:57:23 10° SSE 20:01:14 32° E 20:05:07 10° NNE
Cosmos 2322 Rocket 2.5 19:56:59 10° SW 20:02:35 74° WNW 20:08:14 10° NNE
SL-08 ROCKET BODY 4.4 19:57:30 10° S 20:03:26 84° E 20:09:33 10° N
NOSS 7 (D) 3.8 20:01:49 10° SSW 20:04:35 59° SE 20:07:14 10° NE
Cosmos 2237 4.2 19:59:36 10° SSW 20:05:18 72° ESE 20:11:02 10° NNE
Cosmos 2084 4.3 20:02:14 10° NW 20:06:35 47° NE 20:10:53 10° ESE
Cosmos 1328 4.0 20:03:40 10° S 20:07:32 52° E 20:11:25 10° NNE
SAR-Lupe-2 4.2 20:06:01 10° NNE 20:09:22 36° E 20:12:43 10° SSE
Cosmos 1455 2.7 20:07:42 10° NNW 20:11:31 62° W 20:15:19 10° S
Cosmos 1825 Rocket 3.6 20:12:27 10° S 20:16:52 69° E 20:21:19 10° NNE
ATLAS CENTAUR R/B 1.7 20:15:01 10° NNW 20:18:39 49° NE 20:22:12 10° ESE
Cosmos 1703 3.2 20:17:33 10° S 20:21:26 84° E 20:25:21 10° N
COSMOS 2428 3.4 20:17:34 10° SSE 20:22:34 33° ESE 20:27:36 10° NE
Cosmos 1844 3.9 20:17:56 10° NNW 20:23:44 76° WSW 20:29:26 10° SSE
Cosmos 2322 3.8 20:20:47 10° S 20:26:21 57° ESE 20:31:58 10° NE
Meteor 1-27 4.5 20:24:40 10° N 20:30:21 60° ENE 20:35:46 11° SSE
CZ-4B DEB 4.4 20:28:15 10° SSE 20:31:35 88° WSW 20:34:58 10° NNW
Cosmos 1709 Rocket 4.0 20:26:45 10° S 20:33:02 80° E 20:39:26 10° NNE
NOSS 3-3 (A) 4.3 20:29:26 10° S 20:34:53 41° ESE 20:40:58 10° NE
NOSS 3-3 (C) 4.3 20:29:33 10° S 20:35:00 41° ESE 20:41:05 10° NE
Terra 2.1 20:31:40 12° SSE 20:36:01 57° ENE 20:40:43 10° N
Atlas Centaur 2 4.2 20:33:30 10° SSW 20:36:22 13° S 20:38:47 11° SSE
Cosmos 2237 Rocket 3.7 20:33:11 11° SE 20:36:30 18° E 20:40:16 10° ENE
CARTOSAT-1 3.6 20:32:57 11° SSE 20:37:10 86° ENE 20:41:31 10° NNW
Cosmos 2333 4.2 20:32:33 10° SSW 20:38:07 66° ESE 20:43:48 10° NNE
Cosmos 2219 Rocket 2.4 20:33:13 10° S 20:38:32 48° ESE 20:43:55 10° NE
IGS 5A 4.4 20:36:27 10° S 20:40:27 46° W 20:44:29 10° NNW
Cosmos 2360 Rocket 2.6 20:34:51 10° SW 20:40:28 70° WNW 20:46:10 10° NNE
Cosmos 1538 Rocket 4.3 20:36:16 10° S 20:41:23 48° ESE 20:46:30 10° NNE
Cosmos 2333 Rocket 2.3 20:42:44 10° SSW 20:48:18 61° ESE 20:53:58 10° NE
Cosmos 1315 Rocket 2.8 20:46:46 10° N 20:50:53 79° E 20:54:13 15° SSE
ATLAS 2AS CENTAUR R/B 3.5 20:43:56 10° NW 20:51:31 54° NE 20:58:29 10° ESE
Resurs 01 Rocket 4.1 20:49:36 10° SW 20:52:36 18° W 20:55:37 10° NW
Cosmos-2242 4.2 20:50:10 10° NNW 20:54:13 39° W 20:58:17 10° SSW
Cosmos 1818 4.0 20:50:30 10° SW 20:55:54 66° NW 21:01:21 10° NE
Cosmos 773 Rocket 4.1 20:53:02 10° SSW 20:58:21 87° WNW 21:03:41 10° NNE
Cosmos 2221 2.8 20:55:00 10° N 20:59:20 56° ENE 21:02:29 18° SSE
SL-16 R/B 4.4 20:54:56 10° WSW 20:59:52 30° NW 21:04:49 10° NNE
ERS-1 Rocket 3.4 20:56:51 11° S 21:01:41 58° W 21:06:41 10° NNW
GEOS 3 Rocket 3.9 20:57:02 10° NE 21:02:27 81° NW 21:07:51 10° SW
USA 215 3.2 20:59:13 10° ENE 21:05:45 63° SE 21:12:14 10° SW
Cosmos 2278 Rocket 2.3 21:03:03 10° NNW 21:08:45 72° ENE 21:13:09 17° SE
Cosmos 1892 3.6 21:07:02 20° SE 21:09:00 32° E 21:12:26 10° NNE
ATLAS 5 CENTAUR R/B 2.4 21:08:26 10° WSW 21:12:36 55° NW 21:17:22 10° NE
Cosmos 1844 Rocket 4.2 21:08:30 10° NW 21:13:08 28° WSW 21:17:45 10° SSW
Gblst 52 Del rocket 4.4 21:09:38 10° WNW 21:15:16 65° SSW 21:20:33 15° SE
Cosmos 1943 Rocket 4.3 21:12:08 10° N 21:16:17 20° NE 21:20:25 10° E
SPOT 5 3.7 21:13:56 12° S 21:18:27 47° W 21:23:06 10° NNW
SL-16 R/B 3.9 21:18:55 13° ESE 21:20:55 15° E 21:24:04 10° ENE
Lacrosse 5 rocket 3.3 21:17:40 10° WNW 21:21:22 29° N 21:24:52 10° ENE
Cosmos 2056 Rocket 4.4 21:18:22 10° NNW 21:23:32 43° ENE 21:27:39 15° SE
Nadezhda 3 Rocket 4.2 21:18:15 10° N 21:24:36 62° ENE 21:29:11 19° SSE
Cosmos 2058 3.1 21:25:00 22° SSE 21:27:27 53° E 21:31:30 10° NNE
Cosmos 2154 Rocket 4.2 21:23:04 18° SSE 21:27:32 54° E 21:33:35 10° NNE
BREEZE M DEB (TANK) 4.1 21:27:03 10° WSW 21:27:39 12° SW 21:27:39 12° SW
Cosmos 1408 3.4 21:29:05 24° SE 21:30:29 33° E 21:33:44 10° NNE
Meteor 2-17 Rocket 4.4 21:27:25 16° S 21:32:17 74° E 21:38:20 10° NNE
In-Cosmos 22 Rocket 4.1 21:29:55 18° S 21:33:51 69° E 21:39:10 10° NNE
Cosmos 2074 Rocket 4.0 21:29:15 13° S 21:34:50 89° W 21:41:06 10° N
TSX-5 3.7 21:31:59 10° NW 21:35:27 73° WSW 21:37:36 26° SSE
Cosmos 1076 Rocket 3.6 21:36:08 23° S 21:38:39 63° E 21:42:54 10° NNE
Cosmos 1680 Rocket 3.8 21:35:41 20° S 21:39:10 51° ESE 21:44:20 10° NNE
USA 267 3.3 21:34:04 16° SE 21:39:25 72° SW 21:46:00 10° WNW
CZ-4C R/B 4.3 21:38:48 10° NW 21:44:44 34° NNE 21:51:37 10° E
Cosmos 1842 Rocket 4.4 21:41:56 10° NNW 21:46:03 42° W 21:49:02 17° SSW
JB-3 4.5 21:43:24 10° N 21:47:14 67° WNW 21:49:57 18° SSW
COSMOS 2455 4.2 21:43:09 10° NNW 21:48:41 36° NE 21:54:12 10° ESE
EO 1 Delta rocket 4.5 21:44:09 10° NNE 21:49:06 56° E 21:52:50 22° SSE
Cosmos 2151 3.8 21:47:18 25° SE 21:49:09 37° E 21:53:05 10° NNE
Cosmos 923 Rocket 4.0 21:52:20 15° SSW 21:56:40 88° ESE 22:02:00 10° NNE
Cosmos 2327 Rocket 4.5 21:52:14 18° S 21:57:01 88° W 22:03:12 10° N
ATLAS CENTAUR R/B 2.8 21:54:30 10° WNW 21:57:14 20° WSW 21:58:26 17° SW
Cosmos 1825 2.5 21:58:09 31° SSE 21:59:34 50° E 22:03:15 10° NNE
ALOS 2 3.2 21:58:03 23° SE 22:00:27 47° ENE 22:04:41 10° N
Cosmos 1340 4.5 21:59:38 16° ESE 22:00:35 18° E 22:03:09 10° NE
Cosmos 2369 Rocket 4.0 21:56:15 10° NNW 22:00:55 26° NE 22:05:34 10° E
Cosmos 1151 Rocket 4.1 21:57:00 10° N 22:01:01 35° ENE 22:03:13 21° ESE
Cosmos 1980 3.6 21:56:55 16° SSW 22:01:32 79° ESE 22:07:13 10° NNE
Cosmos 44 4.0 22:05:15 26° SE 22:06:00 27° ESE 22:09:44 10° ENE
COSMOS 2428 3.6 22:01:11 10° SW 22:06:40 49° NW 22:12:12 10° NNE
Cosmos 371 Rocket 4.1 22:03:58 10° NNW 22:08:39 45° ENE 22:11:47 19° SE
GP-B 3.8 22:05:10 10° NNE 22:09:25 42° E 22:11:23 27° SE
Cosmos 1295 Rocket 4.4 22:06:31 22° S 22:10:43 86° E 22:16:52 10° N
NOSS 0 Rocket 4.0 22:07:50 10° SW 22:14:00 79° WNW 22:20:13 10° NNE
Cosmos 1624 Rocket 4.0 22:08:51 10° NNW 22:14:07 83° WSW 22:16:57 28° SSE
Terra 3.8 22:10:35 10° SW 22:14:08 21° W 22:17:43 10° NW
NOSS 3-4 (A) 3.9 22:07:53 10° NW 22:14:46 68° SW 22:19:47 23° SSE
NOSS 3-4 (C) 3.9 22:07:59 10° NW 22:14:53 68° SW 22:19:55 23° SSE
SL-4 R/B 2.5 22:19:54 20° ENE 22:19:54 20° ENE 22:21:22 10° NNE
Cosmos 2237 Rocket 2.2 22:14:58 15° SSW 22:19:50 84° WNW 22:25:36 10° NNE
Genesis I 3.1 22:18:36 28° SSW 22:20:30 71° SE 22:24:24 10° NE
CREW DRAGON DEMO-1 DEB 4.1 22:22:53 26° E 22:22:53 26° E 22:24:36 10° E
Cosmos 2344 3.6 22:16:02 14° SSW 22:22:34 66° SE 22:30:36 10° NE
Cosmos 2219 Rocket 3.7 22:17:33 10° WSW 22:22:40 36° NW 22:27:50 10° NNE
Elektron 1 4.5 22:21:21 17° SW 22:23:54 88° NNW 22:29:56 10° NE
Cosmos 1346 Rocket 4.3 22:28:04 20° ESE 22:29:09 23° E 22:32:18 10° NE
Thor Agena Rocket 3.7 22:24:44 10° NNE 22:29:51 69° WNW 22:33:18 21° SSW
DELTA 2 R/B (1) 4.4 22:25:58 10° SW 22:36:22 - ESE 22:30:03 27° S
Cosmos 2333 Rocket 4.0 22:27:57 10° WSW 22:32:58 31° NW 22:38:04 10° NNE
RESURS DK-1 4.4 22:35:55 10° N 22:39:19 24° NE 22:42:41 10° E
Cosmos 1515 Rocket 4.0 22:37:00 10° N 22:41:16 51° ENE 22:43:15 28° SE
BREEZE-M DEB (TANK) 2.1 22:38:37 10° W 22:41:22 38° SW 22:41:22 38° SW
ATLAS 2AS CENTAUR R/B 3.1 22:35:18 10° NW 22:42:34 52° WSW 22:46:25 26° S
EO 1 Del DPAF 4.0 22:39:21 10° N 22:42:58 45° WNW 22:44:59 22° SW
Cosmos 1766 Rocket 3.5 22:44:24 33° S 22:46:20 89° WNW 22:50:46 10° N
Cosmos 1328 Rocket 3.4 22:44:21 10° N 22:48:42 84° WSW 22:50:25 36° S
USA 215 3.8 22:42:19 10° ENE 22:48:48 63° NNW 22:55:15 10° W
Gbstr 26 Del rocket 3.9 22:49:28 26° SE 22:49:28 26° SE 22:52:22 10° E
Aureole 2 Rocket 2.5 22:46:12 10° NW 22:48:54 42° WSW 22:48:59 42° WSW
Okean 3 Rocket 3.6 22:47:02 30° SSW 22:49:10 74° W 22:53:37 10° N
Cosmos 1606 3.0 22:47:10 10° NNW 22:51:01 60° W 22:52:19 37° SSW
Cosmos 2278 Rocket 3.8 22:48:03 10° NW 22:52:16 22° W 22:54:59 16° SW
Cosmos 2297 3.8 22:48:35 10° NNW 22:54:17 65° WSW 22:57:11 29° S
Cosmos 2218 Rocket 4.0 22:50:54 27° S 22:54:38 83° E 23:00:59 10° N
Cosmos 304 Rocket 4.2 22:50:22 10° NNW 22:55:09 56° ENE 22:58:03 23° SE
Cosmos 864 Rocket 4.5 22:52:05 27° S 22:55:39 79° E 23:01:59 10° NNE
Cosmos 2228 Rocket 4.0 22:52:31 10° N 22:56:55 43° ENE 22:59:19 23° SE
Cosmos 1420 Rocket 4.1 22:52:48 10° NNW 22:58:03 68° WSW 23:00:36 31° S
Cosmos 2366 rocket 4.0 22:56:35 27° S 23:00:20 87° E 23:06:44 10° N
Cosmos 1943 Rocket 2.3 22:55:18 10° NNW 23:01:01 77° ENE 23:04:40 23° SE
Lacrosse 5 rocket 2.1 22:57:15 10° NW 23:01:11 48° NNE 23:04:54 10° E
Cosmos 1633 3.1 23:01:11 37° SE 23:02:05 46° E 23:05:34 10° NNE
Landsat 4 4.3 22:59:19 10° NNE 23:02:57 44° E 23:03:59 35° SE
SL-16 R/B 2.1 23:00:47 26° SSW 23:04:09 85° ESE 23:09:53 10° NNE
Cosmos 1959 Rocket 4.5 23:06:20 26° SSW 23:09:58 80° W 23:16:13 10° N
YAOGAN 11 4.0 23:09:09 35° SSE 23:11:01 88° W 23:15:28 10° NNW
Cosmos 1743 Rocket 3.8 23:12:36 34° SSE 23:14:15 57° E 23:18:31 10° NNE
Cosmos 332 Rocket 3.8 23:14:40 10° NNW 23:19:26 65° WSW 23:21:28 33° S
Cosmos 1048 Rocket 4.3 23:19:32 30° S 23:21:57 55° ESE 23:27:06 10° NNE
USA 267 4.4 23:21:24 21° SSW 23:23:11 24° SW 23:28:19 10° WNW
Meteor 2-3 Rocket 3.8 23:21:02 27° SSW 23:24:11 77° WNW 23:29:56 10° N
Helios 1A 3.4 23:24:53 34° SSW 23:26:18 50° W 23:30:22 10° NNW
Cosmos 405 2.9 23:24:42 10° NNW 23:28:15 73° W 23:29:08 47° S
Meteor 1-29 4.4 23:25:30 10° NE 23:28:23 25° E 23:29:10 23° ESE
Meteor 1-10 Rocket 4.5 23:26:43 10° N 23:32:18 63° ENE 23:35:50 22° SSE
Cosmos 1452 Rocket 3.8 23:27:42 10° NNW 23:32:48 52° WSW 23:35:06 30° SSW
CZ-4C R/B 3.0 23:27:17 10° NW 23:34:19 79° NE 23:42:30 10° SE
Meteor 2-6 Rocket 4.2 23:29:14 10° N 23:34:45 77° ENE 23:37:54 26° SSE
PSLV R/B 3.6 23:30:41 10° NNE 23:34:53 65° ESE 23:36:34 35° S
Cosmos 389 Rocket 4.4 23:32:00 10° NNE 23:34:55 23° ENE 23:37:05 14° ESE
COSMOS 2455 2.9 23:29:02 10° NW 23:35:01 63° WSW 23:38:24 26° SSE
Cosmos 1340 3.6 23:34:23 27° WSW 23:35:53 40° WNW 23:39:29 10° N
Cosmos 1110 Rocket 4.1 23:31:32 10° NNW 23:36:50 78° ENE 23:40:16 23° SSE
ALOS 2 4.3 23:35:27 18° WSW 23:37:02 22° W 23:40:26 10° NW
Cosmos 1408 Rocket 4.2 23:35:56 26° SW 23:38:01 46° WNW 23:42:17 10° N
SL-16 R/B 3.8 23:32:47 10° SE 23:38:22 37° ENE 23:44:00 10° N
Cosmos 1151 Rocket 4.5 23:34:49 10° NNW 23:38:26 26° W 23:40:03 21° WSW
Cosmos 1603 4.1 23:36:25 28° S 23:39:09 49° ESE 23:44:39 10° NE
Cosmos 1727 Rocket 4.4 23:38:34 10° NNW 23:44:36 53° W 23:48:04 25° SSW
APEX 4.2 23:42:47 10° WNW 23:44:21 20° W 23:44:21 20° W
Resurs 1-4 Rocket 3.9 23:41:09 10° NE 23:45:12 22° E 23:48:44 12° SE
Cosmos 2369 Rocket 2.1 23:39:55 10° NNW 23:45:31 74° WSW 23:48:49 25° SSE
Cosmos 1500 Rocket 3.6 23:44:49 33° SSW 23:46:44 73° W 23:51:09 10° N
Cosmos 44 3.8 23:43:38 15° WSW 23:46:58 48° NW 23:51:20 10° NNE
SeaSat 1 3.8 23:45:02 10° NE 23:49:09 26° ESE 23:51:20 19° SE
ISS -1.7 23:51:00 17° ESE 23:51:00 17° ESE 23:52:29 10° E
Helios 1B rocket 2.4 23:49:31 10° NNE 23:53:41 84° ESE 23:55:23 35° S
